Weather in Sant Antoni de Portmany

Spain     38°58′59″N   1°18′16″E
temp.,
°C
wind,
m/s
gust,
m/s
humid.,
%
clouds,
%
prec.,
mm/h
press.,
hPa
HPBL,
m
21 january, fri
fri2101:00+10ene33778 0.2 1025274
04:00+9ne22775 0.1 1024266
07:00+10n44736 0.1 1023558
10:00+12n66665 0.0 1025783
13:00+12nnw55665 0.0 1025837
16:00+13nne546413 0.0 10241001
19:00+10ene56801 0.1 1026418
22:00+10ene56750 0.0 1028488
22 january, sat
sat2201:00+9e568526 0.1 1029325
04:00+10e457744 0.2 1028397
07:00+9ese337319 0.2 1029327
10:00+11ese236520 0.0 1030376
13:00+12sse115721 0.1 10301057
16:00+12sse226150 0.1 1028939
19:00+11se3365100 0.1 1029525
22:00+11se4468100 0.1 1029421
23 january, sun
sun2301:00+11se4568100 0.2 1029388
04:00+11se4565100 0.1 1028351
07:00+11ese4563100 0.1 1027352
10:00+12ese446459 0.0 1028577
13:00+13ese335625 0.0 10271146
16:00+13e44537 0.0 10261124
19:00+11e34655 0.0 1027347
22:00+10e33681 0.0 1027260
24 january, mon
mon2401:00+10e34701 0.0 1027224
04:00+10ene45713 0.0 1028287
07:00+9ene34741 0.0 1028251
10:00+11ene34682 0.0 1030344
13:00+13ene33576 0.0 10301110
16:00+13nne225910 0.0 1030898
19:00+11e44725 0.0 1031410
22:00+10ene34751 0.0 1033267
25 january, tue
tue2501:00+9ene22760 0.0 1033194
04:00+10nne33752 0.0 1033435
07:00+10ne33750 0.0 1033443
10:00+11ene12700 0.0 1033353
13:00+12nnw11610 0.0 1033696
16:00+12nnw11630 0.0 1031613
19:00+10e11700 0.0 1031252
22:00+10se12730 0.0 1032233